#timestamp,LO_Frequency,Hit,StdDev 
1645171215.7,286047002.9,N
1645171235.6,286046999.0,N
1645171255.4,286046999.3,N
1645171275.3,286047000.8,N
1645171295.1,286047000.3,N
1645171296.0,286047000.3,N
1645171315.8,286047005.1,N
1645171335.7,286047007.1,N
1645171355.5,286047004.4,N
1645171375.3,286047002.6,N
1645171395.2,286047000.1,N
1645171415.0,286047001.1,N
1645171415.9,286047001.1,N
1645171435.8,286047001.9,N
1645171455.6,286047007.0,N
1645171475.4,286047006.4,N
1645171495.3,286047010.3,Y
1645171515.1,286047007.6,P
1645171535.9,286047005.3,N
1645171555.7,286046993.3,P
1645171575.5,286046994.1,N
1645171595.4,286046996.7,N
1645171615.2,286046996.5,N
1645171635.0,286046997.2,N
1645171635.9,286046997.2,N
1645171655.8,286046995.0,N
1645171675.6,286046997.7,N
1645171695.5,286046994.2,N
1645171715.3,286046995.0,N
1645171735.1,286046994.5,N
1645171755.9,286046995.5,N
1645171775.7,286046994.2,N
1645171795.5,286046994.7,N
1645171815.4,286046995.4,N
1645171835.2,286046996.0,N
1645171855.0,286046992.4,N
1645171856.0,286046992.4,N
1645171875.8,286046991.7,N
1645171895.6,286046993.2,N
1645171915.5,286046989.1,N
1645171935.3,286046987.4,Y
1645171955.1,286046990.0,P
1645171975.9,286046986.1,P
1645171995.7,286046980.6,P
1645172015.6,286046983.5,N
1645172035.4,286046985.9,N
1645172055.2,286046985.9,N
1645172075.1,286046989.1,N
1645172076.0,286046989.1,N
1645172095.8,286046991.9,N
1645172115.6,286046993.9,N
1645172135.5,286046995.5,N
1645172155.3,286046994.8,N
1645172175.2,286046994.0,N
1645172195.9,286046996.6,N
1645172215.7,286047002.1,N
1645172235.6,286047004.8,N
1645172255.4,286047008.7,N
1645172275.2,286047003.0,N
1645172295.1,286047006.1,N
1645172296.0,286047006.1,N
1645172315.8,286047006.2,N
1645172335.7,286047010.9,N
1645172355.5,286047012.5,N
1645172375.3,286047015.5,N
1645172395.2,286047016.7,N
1645172415.0,286047018.2,N
1645172415.9,286047018.2,N
1645172435.7,286047014.5,N
1645172455.6,286047005.0,N
1645172475.4,286046993.8,N
1645172495.3,286046995.2,N
1645172515.1,286046993.4,N
1645172516.0,286046993.4,N
1645172535.8,286046989.0,N
1645172555.7,286046988.6,N
1645172575.5,286046986.2,N
1645172595.3,286046976.4,N
1645172615.2,286046969.8,N
1645172635.0,286046966.3,N
1645172635.9,286046966.3,N
1645172655.8,286046965.3,N
1645172675.6,286046966.0,N
1645172695.4,286046963.2,N
1645172715.3,286046965.3,N
1645172735.1,286046966.2,N
1645172755.8,286046962.2,N
1645172775.7,286046958.6,N
1645172795.5,286046957.7,N
1645172815.4,286046955.4,N
1645172835.2,286046963.9,N
1645172855.0,286046965.6,N
1645172855.9,286046965.6,N
1645172875.8,286046970.6,N
1645172895.6,286046973.0,N
1645172915.4,286046979.7,N
1645172935.3,286046981.7,N
1645172955.1,286046980.1,N
1645172975.9,286046980.1,N
1645172995.7,286046980.9,N
1645173015.5,286046981.1,N
1645173035.4,286046977.0,N
1645173055.2,286046975.9,N
1645173075.0,286046978.3,N
1645173075.9,286046978.3,N
1645173095.8,286046977.8,N
1645173115.6,286046984.6,N
1645173135.5,286046996.3,N
1645173155.3,286046999.5,N
1645173175.1,286046995.4,N
1645173195.9,286046996.2,N
1645173215.7,286046997.2,N
1645173235.5,286047004.2,N
1645173255.4,286046997.3,N
1645173275.2,286046988.7,N
1645173295.1,286046983.8,N
1645173296.0,286046983.8,N
1645173315.8,286046992.4,N
1645173335.6,286046987.3,N
1645173355.5,286046991.6,N
1645173375.3,286046984.3,N
1645173395.1,286046984.0,N
1645173415.9,286046988.9,N
1645173435.7,286046985.3,N
1645173455.6,286046986.9,N
1645173475.4,286046988.8,N
1645173495.2,286046992.3,N
1645173515.1,286046986.0,N
1645173516.0,286046986.0,N
1645173535.8,286046981.7,N
1645173555.6,286046973.5,Y
1645173575.5,286046988.9,P
1645173595.3,286046990.1,P
1645173615.2,286046983.9,P
1645173635.9,286046983.0,Y
1645173655.7,286046998.7,P
1645173675.6,286047000.8,N
1645173695.4,286047005.6,N
1645173715.2,286047009.9,N
1645173735.1,286047017.5,N
1645173736.0,286047017.5,N
1645173755.8,286047023.6,N
1645173775.7,286047025.8,N
1645173795.5,286047027.5,N
1645173815.3,286047024.3,N
1645173835.2,286047027.8,N
1645173855.0,286047025.3,N
1645173855.9,286047025.3,N
1645173875.8,286047026.6,N
1645173895.6,286047022.5,N
1645173915.4,286047024.4,N
1645173935.3,286047026.5,N
1645173955.1,286047028.4,N
1645173975.8,286047026.8,N
1645173995.7,286047023.1,N
1645174015.5,286047021.8,N
1645174035.3,286047024.5,N
1645174055.2,286047029.9,N
1645174075.0,286047030.2,N
1645174075.9,286047030.2,N
1645174095.8,286047034.1,Y
1645174115.6,286047010.2,P
1645174135.4,286047012.8,N
1645174155.3,286047016.3,P
1645174175.1,286047009.6,N
1645174195.9,286047011.7,N
1645174215.7,286047015.0,Y
1645174235.5,286047002.1,P
1645174255.4,286047005.7,N
1645174275.2,286047009.4,N
1645174295.0,286047013.4,Y
1645174295.9,286047013.4,P
1645174315.8,286047004.1,N
1645174335.6,286047000.8,N
1645174355.5,286046999.9,N
1645174375.3,286047003.4,N
1645174395.1,286047000.1,N
1645174415.9,286047000.9,N
1645174435.7,286046997.5,N
1645174455.5,286046997.6,N
1645174475.4,286046998.0,N
1645174495.2,286046999.2,N
1645174515.1,286047000.0,N
1645174516.0,286047000.0,N
1645174535.8,286047004.1,N
1645174555.6,286047001.6,N
1645174575.5,286046998.9,N
1645174595.3,286046998.1,N
1645174615.1,286047002.8,N
1645174635.9,286046997.5,N
1645174655.7,286046995.1,N
1645174675.6,286046997.8,N
1645174695.4,286046991.7,N
1645174715.2,286046996.4,N
1645174735.1,286046998.4,N
1645174736.0,286046998.4,N
1645174755.8,286047000.6,N
1645174775.6,286047002.8,N
1645174795.5,286047003.1,N
